Regional Weather Roundup
Issued by NWS

Home | Current Version | Previous Version | Graphics & Text | Print | Product List | Glossary Off
Versions: 1 2 3 4 5 6 7 8 9 10 11 12 13 14 15 16 17 18 19 20 21 22 23 24 25 26 27 28 29 30 31 32 33 34 35 36 37 38 39 40 41 42 43 44 45 46 47 48 49 50

000
ASUS43 KLOT 161610
RWRIL

ILLINOIS REGIONAL WEATHER ROUNDUP
NATIONAL WEATHER SERVICE CHICAGO/ROMEOVILLE IL
1100 AM CDT TUE SEP 16 2014

NOTE: "FAIR" INDICATES FEW OR NO CLOUDS BELOW 12,000 FEET WITH NO
SIGNIFICANT WEATHER AND/OR OBSTRUCTIONS TO VISIBILITY.

* THESE STATIONS ARE NOT UNDER NWS QUALITY CONTROL. THEY ALSO MAY NOT
  REPORT WEATHER SUCH AS PRECIPITATION OR FOG.

ILZ001-002-007-009-015-016-024-161700-
NORTHWEST ILLINOIS

CITY           SKY/WX    TMP DP  RH WIND       PRES   REMARKS
MOLINE         SUNNY     60  45  57 CALM      30.24F
STERLING*      SUNNY     61  45  55 NE3       30.23F
SAVANNA*       SUNNY     59  42  53 SW3       30.23F
$$

ILZ003-004-008-010-011-017-018-161700-
NORTH CENTRAL ILLINOIS

CITY           SKY/WX    TMP DP  RH WIND       PRES   REMARKS
ROCKFORD       MOSUNNY   60  42  51 N7        30.23F
FREEPORT*      SUNNY     57  44  60 CALM      30.24F
ROCHELLE*      SUNNY     58  41  52 CALM      30.23F
DE KALB*       SUNNY     57  40  52 CALM      30.22F
PERU*          SUNNY     60  45  58 CALM      30.24S
$$

ILZ005-006-012>014-019>023-161700-
NORTHEAST ILLINOIS

CITY           SKY/WX    TMP DP  RH WIND       PRES   REMARKS
CHICAGO-OHARE  MOSUNNY   59  40  49 VRB3      30.20F
CHICAGO-MIDWAY MOSUNNY   61  48  62 S3        30.20F
AURORA         SUNNY     60  43  53 N5        30.22F
LANSING*       MOSUNNY   61  47  58 CALM      30.21S
JOLIET*        SUNNY     60  46  61 CALM      30.22F
WAUKEGAN       SUNNY     61  39  44 VRB5      30.20F
DUPAGE AIRPORT SUNNY     63  42  46 VRB3      30.21F
KANKAKEE*      PTSUNNY   60  49  68 CALM      30.21F
WHEELING       SUNNY     62  41  46 CALM      30.22F
MORRIS*        SUNNY     60  48  63 CALM      30.21F
ROMEOVILLE*    SUNNY     60  47  61 CALM      30.21F
NORTHERLY ISL    N/A     58  50  75 NE5         N/A
$$

LMZ740>746-161700-
SOUTHERN LAKE MICHIGAN

STATION/POSITION SKY/WX   TEMP    WIND        PRES    VSBY  WAVE
                          AIR SEA DIR/SP/G                  HT/PER
                          (F)     (DEG/KT/KT) (MB)    (MI)  (FT/S)
SOUTHERN BUOY              58 64  310/  8/ 10 1022.7          2/ 5
WAUKEGAN HARBOR            57      80/  4/  6   N/A
HARRISON CRIB              56     340/  5/  6   N/A
BURNHAM HARBOR             58      40/  4       N/A
CALUMET HARBOR             59      60/  5/  5 1021.6F
MICHIGAN CITY              58     230/  7/  9   N/A
MICHIGAN CITY 6N           59 64  270/  6/ 10   N/A           2/ 4
ST. JOSEPH                 59 67  200/  8/ 12   N/A           1/ 4
$$

ILZ025>027-034>036-040-047-049-050-058-095>099-161700-
WEST-CENTRAL ILLINOIS

CITY           SKY/WX    TMP DP  RH WIND       PRES   REMARKS
QUINCY         MOSUNNY   59  46  62 E5        30.23F
GALESBURG*     SUNNY     63  50  63 NE5       30.23F
MACOMB*        SUNNY     60  47  64 CALM      30.26F
JACKSONVILLE*  MOSUNNY   60  51  70 NE5       30.24F
PITTSFIELD*    MOSUNNY   61  50  66 NE5       30.25S
$$

ILZ028>032-037-038-041>044-048-051>054-059>061-161700-
CENTRAL ILLINOIS

CITY           SKY/WX    TMP DP  RH WIND       PRES   REMARKS
PONTIAC        SUNNY     61  52  72 N3        30.22F
DECATUR        CLOUDY    60  50  69 N3        30.23F
PEORIA         SUNNY     61  50  67 CALM      30.23F
LACON*         SUNNY     57  46  65 CALM      30.23F
LINCOLN*       SUNNY     62  48  60 CALM      30.21F
SPRINGFIELD    MOSUNNY   62  51  67 VRB3      30.24F
TAYLORVILLE    CLOUDY    57  50  77 NE3       30.23F
$$

ILZ033-039-045-046-055>057-062-063-161700-
EAST-CENTRAL ILLINOIS

CITY           SKY/WX    TMP DP  RH WIND       PRES   REMARKS
CHAMPAIGN      CLOUDY    61  51  70 VRB3      30.22S
DANVILLE*      CLOUDY    59  53  79 CALM      30.19S
RANTOUL*       SUNNY     63  49  60 CALM      30.22F
MATTOON        CLOUDY    57  51  80 N8        30.21F
PARIS*         CLOUDY    57  54  88 CALM      30.22F
$$

ILZ079-100>102-161700-
SOUTHWEST ILLINOIS

CITY           SKY/WX    TMP DP  RH WIND       PRES   REMARKS
ALTON          CLOUDY    59  52  77 N7        30.23F
BELLEVILLE     PTSUNNY   62  53  72 N6        30.22S
CAHOKIA*       CLOUDY    64  54  69 E7        30.22F
SPARTA*        CLOUDY    61  54  76 NE8       30.22F
$$

ILZ064>066-069>071-074>076-080>082-084>086-088>090-092>094-161700-
SOUTH-CENTRAL ILLINOIS

CITY           SKY/WX    TMP DP  RH WIND       PRES   REMARKS
CARBONDALE     CLOUDY    59  52  77 NE6       30.21F
CAIRO*         PTSUNNY   66  56  70 N12       30.19S
EFFINGHAM*     CLOUDY    58  51  79 NE3       30.22S
MARION         CLOUDY    61  54  77 N8        30.22S
MT. VERNON     CLOUDY    59  50  72 NE7       30.22F
CENTRALIA*     CLOUDY    59  51  77 CALM      30.22F
SALEM*         CLOUDY    60  55  82 E5        30.22F
METROPOLIS*    CLOUDY    65  55  70 N9        30.18F
$$

ILZ067-068-072-073-078-083-087-091-161700-
SOUTHEAST ILLINOIS

CITY           SKY/WX    TMP DP  RH WIND       PRES   REMARKS
LAWRENCEVILLE  CLOUDY    60  53  77 N8        30.21S
FLORA*         SUNNY     58  51  76 E7        30.22F
FAIRFIELD*     CLOUDY   N/A N/A N/A N7        30.21F
HARRISBURG*    CLOUDY    62  54  75 NE7       30.21F
ROBINSON*      CLOUDY    60  55  84 NE6       30.22S
CARMI*         CLOUDY    63  56  78 N7        30.20S
$$

ABBREVIATIONS USED IN REMARKS
   TC - TEMPERATURE IN CELSIUS
  WCI - WIND CHILL INDEX
   HX - HEAT INDEX
  VSB - VISIBILITY
$$



USA.gov is the U.S. government's official web portal to all federal, state and local government web resources and services.